Total_Precipitation_Accumulation
0.27 0.31 0.40 0.52 0.50 0.34 0.13 0.04 0.01 0.01 0.02 0.04 0.03 0.03 0.03 0.06 0.11 0.15 0.13 0.12 0.16 0.21 0.26 0.48 0.70 0.87 0.92 0.98 0.97 0.92 0.90 0.93 0.99 1.01 1.03 1.09 1.09 1.11 1.21 1.32 1.39 1.43 1.50 1.54 1.55 1.50 1.51 1.38 1.26
0.26 0.38 0.52 0.65 0.44 0.20 0.07 0.03 0.01 0.02 0.03 0.04 0.03 0.03 0.03 0.06 0.06 0.07 0.09 0.11 0.17 0.25 0.27 0.40 0.65 0.88 0.99 1.03 1.03 0.98 0.98 1.04 1.13 1.15 1.14 1.17 1.21 1.22 1.29 1.35 1.42 1.39 1.39 1.49 1.48 1.47 1.46 1.36 1.28
0.39 0.53 0.60 0.63 0.39 0.13 0.04 0.02 0.02 0.03 0.04 0.04 0.03 0.04 0.04 0.06 0.06 0.07 0.10 0.11 0.16 0.21 0.26 0.41 0.68 0.93 1.12 1.15 1.16 1.12 1.09 1.12 1.21 1.27 1.30 1.29 1.33 1.31 1.35 1.34 1.31 1.30 1.27 1.29 1.28 1.38 1.40 1.34 1.22
0.57 0.75 0.72 0.56 0.27 0.11 0.04 0.02 0.02 0.03 0.04 0.04 0.03 0.04 0.05 0.06 0.06 0.09 0.11 0.12 0.18 0.21 0.28 0.44 0.72 0.99 1.13 1.16 1.13 1.17 1.20 1.23 1.30 1.36 1.42 1.46 1.51 1.46 1.42 1.33 1.29 1.22 1.20 1.23 1.25 1.29 1.33 1.28 1.18
0.74 0.86 0.77 0.48 0.17 0.07 0.04 0.03 0.03 0.03 0.04 0.05 0.05 0.06 0.06 0.06 0.07 0.11 0.15 0.17 0.20 0.27 0.36 0.50 0.80 1.08 1.18 1.24 1.24 1.25 1.36 1.44 1.44 1.44 1.53 1.62 1.67 1.61 1.46 1.35 1.31 1.30 1.28 1.29 1.32 1.34 1.35 1.25 1.14
0.93 0.93 0.67 0.34 0.12 0.05 0.03 0.02 0.03 0.04 0.04 0.05 0.07 0.09 0.09 0.10 0.13 0.17 0.20 0.20 0.22 0.30 0.43 0.60 0.96 1.15 1.24 1.32 1.34 1.35 1.46 1.60 1.65 1.67 1.76 1.78 1.74 1.67 1.60 1.45 1.36 1.40 1.40 1.37 1.36 1.40 1.42 1.32 1.20
0.99 0.86 0.51 0.24 0.11 0.06 0.05 0.04 0.05 0.06 0.06 0.06 0.07 0.10 0.12 0.18 0.21 0.25 0.26 0.29 0.36 0.45 0.59 0.71 0.96 1.14 1.32 1.48 1.53 1.51 1.59 1.66 1.71 1.86 1.90 1.85 1.81 1.77 1.73 1.59 1.46 1.49 1.49 1.52 1.44 1.36 1.26 1.20 1.21
1.01 0.96 0.53 0.28 0.16 0.10 0.07 0.07 0.07 0.07 0.07 0.10 0.11 0.12 0.12 0.19 0.24 0.33 0.38 0.44 0.54 0.63 0.75 0.89 1.03 1.19 1.35 1.53 1.65 1.71 1.75 1.79 1.86 1.92 1.89 1.87 1.93 1.94 1.86 1.65 1.56 1.55 1.54 1.56 1.53 1.41 1.24 1.12 1.14
1.12 1.15 0.62 0.28 0.20 0.14 0.10 0.11 0.07 0.08 0.11 0.14 0.14 0.11 0.15 0.20 0.28 0.43 0.57 0.65 0.72 0.84 0.93 1.11 1.21 1.29 1.45 1.59 1.65 1.91 2.05 2.09 2.10 2.10 2.03 2.07 2.05 1.98 1.86 1.65 1.57 1.53 1.58 1.56 1.60 1.54 1.39 1.23 1.14
1.26 0.98 0.49 0.24 0.21 0.19 0.15 0.14 0.11 0.13 0.18 0.17 0.17 0.16 0.22 0.31 0.38 0.46 0.55 0.64 0.74 0.81 1.00 1.19 1.41 1.51 1.66 1.71 1.84 2.04 2.16 2.27 2.27 2.00 2.00 2.08 1.97 1.94 1.87 1.86 1.86 1.70 1.68 1.70 1.62 1.55 1.49 1.34 1.13
1.05 0.69 0.36 0.25 0.23 0.25 0.23 0.20 0.17 0.18 0.20 0.19 0.20 0.23 0.31 0.40 0.46 0.51 0.55 0.63 0.77 0.84 1.00 1.23 1.52 1.76 1.88 1.85 1.83 1.96 2.14 2.24 2.30 2.04 1.89 1.94 2.01 2.03 2.03 1.90 1.95 1.90 1.81 1.83 1.69 1.61 1.45 1.28 1.18
0.78 0.49 0.34 0.31 0.29 0.33 0.32 0.27 0.25 0.20 0.18 0.20 0.24 0.27 0.37 0.44 0.51 0.56 0.58 0.63 0.80 0.97 1.07 1.29 1.57 1.88 2.00 2.06 1.95 1.94 2.06 2.12 2.18 2.12 2.04 1.98 2.01 1.98 1.87 1.79 1.68 1.67 1.60 1.59 1.59 1.51 1.38 1.26 1.15
0.63 0.45 0.35 0.33 0.35 0.38 0.39 0.35 0.29 0.21 0.17 0.24 0.31 0.34 0.43 0.46 0.55 0.68 0.70 0.72 0.83 1.00 1.14 1.39 1.61 1.87 2.14 2.27 2.22 2.13 2.18 2.02 2.10 2.24 2.30 2.15 2.01 1.97 1.94 1.81 1.73 1.64 1.55 1.50 1.48 1.40 1.33 1.25 1.15
0.54 0.47 0.39 0.34 0.36 0.42 0.47 0.43 0.36 0.24 0.21 0.33 0.38 0.41 0.47 0.52 0.62 0.74 0.81 0.80 0.82 0.96 1.15 1.46 1.70 1.87 2.18 2.33 2.29 2.26 2.34 2.26 2.26 2.28 2.27 2.31 2.27 2.11 2.06 1.95 1.80 1.71 1.63 1.52 1.49 1.43 1.39 1.33 1.21
0.57 0.65 0.53 0.40 0.37 0.42 0.53 0.58 0.39 0.26 0.28 0.40 0.47 0.49 0.53 0.57 0.68 0.78 0.88 0.89 0.86 0.96 1.16 1.48 1.73 1.96 2.17 2.26 2.31 2.34 2.37 2.42 2.37 2.31 2.33 2.39 2.34 2.29 2.20 2.08 1.96 1.79 1.75 1.73 1.66 1.62 1.52 1.46 1.34
0.86 1.05 0.87 0.49 0.39 0.47 0.68 0.65 0.32 0.27 0.36 0.40 0.52 0.53 0.56 0.59 0.66 0.80 0.97 1.09 1.03 1.08 1.17 1.38 1.68 1.90 2.11 2.23 2.28 2.28 2.38 2.42 2.46 2.47 2.42 2.42 2.48 2.49 2.48 2.25 2.09 1.87 1.82 1.84 1.82 1.73 1.66 1.53 1.41
1.28 1.19 0.82 0.53 0.43 0.54 0.73 0.58 0.30 0.30 0.41 0.45 0.54 0.60 0.61 0.65 0.67 0.78 0.97 1.14 1.17 1.17 1.25 1.43 1.63 1.79 1.96 2.23 2.38 2.31 2.34 2.46 2.53 2.54 2.57 2.45 2.48 2.55 2.64 2.58 2.35 2.16 2.06 1.92 1.84 1.75 1.65 1.57 1.48
1.13 0.85 0.63 0.52 0.48 0.55 0.63 0.51 0.35 0.33 0.42 0.47 0.54 0.60 0.61 0.68 0.66 0.72 0.92 1.15 1.24 1.29 1.36 1.48 1.64 1.81 1.96 2.31 2.52 2.60 2.52 2.55 2.58 2.50 2.46 2.47 2.46 2.45 2.50 2.59 2.57 2.46 2.37 2.21 2.03 1.91 1.73 1.60 1.54
0.73 0.78 0.64 0.43 0.41 0.55 0.56 0.47 0.36 0.34 0.40 0.47 0.52 0.59 0.57 0.64 0.71 0.77 0.89 1.08 1.29 1.34 1.38 1.53 1.60 1.76 1.97 2.20 2.39 2.43 2.49 2.45 2.44 2.39 2.39 2.39 2.41 2.40 2.39 2.33 2.41 2.43 2.36 2.25 2.14 2.05 1.99 1.84 1.68
0.84 0.93 0.72 0.50 0.40 0.59 0.60 0.50 0.38 0.37 0.42 0.48 0.49 0.58 0.62 0.64 0.74 0.84 0.94 1.08 1.33 1.40 1.40 1.53 1.66 1.76 1.80 1.92 2.11 2.22 2.38 2.46 2.44 2.35 2.38 2.34 2.31 2.29 2.38 2.38 2.27 2.24 2.23 2.21 2.13 2.05 1.99 1.95 1.81
0.93 0.84 0.70 0.64 0.59 0.68 0.75 0.72 0.44 0.41 0.40 0.46 0.51 0.58 0.69 0.73 0.75 0.83 0.93 1.05 1.32 1.49 1.50 1.53 1.62 1.78 1.85 1.97 2.20 2.34 2.58 2.68 2.72 2.52 2.37 2.32 2.32 2.22 2.18 2.32 2.33 2.22 2.17 2.13 2.08 1.99 1.90 1.88 1.75
0.98 0.57 0.58 0.69 1.03 1.15 0.97 1.12 0.55 0.40 0.40 0.47 0.54 0.57 0.70 0.76 0.77 0.84 0.87 0.99 1.17 1.36 1.50 1.57 1.69 1.81 1.84 2.03 2.23 2.26 2.42 2.48 2.42 2.31 2.25 2.20 2.26 2.27 2.18 2.17 2.25 2.27 2.15 2.02 2.00 2.02 1.95 1.96 1.95
0.81 0.52 0.66 0.83 1.15 1.35 1.01 1.11 0.63 0.36 0.44 0.47 0.53 0.55 0.65 0.75 0.73 0.81 0.85 0.86 1.00 1.16 1.37 1.53 1.72 1.88 1.90 1.95 2.14 2.21 2.18 2.26 2.37 2.42 2.38 2.31 2.28 2.26 2.21 2.20 2.21 2.20 2.15 2.01 1.93 1.96 2.02 2.04 2.02
0.74 0.87 1.07 1.26 1.84 2.14 0.89 0.86 0.68 0.54 0.63 0.54 0.52 0.58 0.67 0.75 0.78 0.81 0.81 0.82 0.94 1.10 1.27 1.44 1.64 1.79 1.89 1.89 2.00 2.18 2.16 2.15 2.28 2.46 2.51 2.44 2.36 2.30 2.20 2.12 2.16 2.12 2.01 1.95 1.89 1.88 1.87 1.90 1.92
1.18 1.82 2.73 2.92 2.92 1.76 0.49 0.66 0.76 0.57 0.55 0.64 0.65 0.67 0.71 0.73 0.81 0.87 0.77 0.81 0.87 0.98 1.16 1.33 1.54 1.64 1.75 1.81 1.87 1.94 2.09 2.09 2.09 2.15 2.27 2.41 2.36 2.26 2.19 2.12 2.07 2.05 1.95 1.85 1.83 1.85 1.83 1.76 1.77
1.28 1.64 2.24 2.20 1.49 0.70 0.40 0.64 0.67 0.47 0.42 0.45 0.52 0.64 0.68 0.70 0.75 0.82 0.80 0.82 0.85 0.88 1.02 1.18 1.31 1.51 1.68 1.78 1.80 1.83 1.91 2.05 2.00 2.01 1.97 2.10 2.17 2.04 1.98 2.07 2.03 1.99 1.98 1.96 1.93 1.87 1.85 1.82 1.73
1.15 1.29 1.18 1.63 1.16 0.78 0.63 0.56 0.46 0.24 0.25 0.33 0.45 0.57 0.72 0.79 0.82 0.81 0.83 0.87 0.83 0.89 0.96 1.11 1.20 1.34 1.57 1.75 1.82 1.81 1.85 1.92 1.93 1.90 1.91 1.93 1.95 1.97 1.96 1.98 1.99 1.95 2.03 2.11 2.15 2.08 1.91 1.85 1.80
0.93 1.13 1.44 2.11 1.81 1.05 0.64 0.58 0.64 0.45 0.44 0.43 0.51 0.59 0.75 0.85 0.92 0.90 0.87 0.94 0.90 0.91 0.96 1.02 1.16 1.26 1.41 1.64 1.86 1.87 1.82 1.79 1.86 1.92 1.96 1.92 1.88 1.92 1.96 1.98 2.01 1.97 1.93 2.01 2.12 2.10 2.01 2.00 1.90
1.07 1.43 1.78 1.89 1.50 1.25 0.84 0.78 0.77 0.67 0.63 0.60 0.61 0.64 0.75 0.85 0.92 0.88 0.81 0.84 0.90 0.90 0.99 1.04 1.12 1.22 1.34 1.46 1.66 1.80 1.82 1.83 1.87 1.90 1.86 1.89 1.88 1.88 1.88 1.87 1.89 1.95 1.93 1.90 1.99 1.97 1.94 1.97 1.90
0.91 1.25 1.55 1.94 1.44 0.96 0.92 0.84 0.62 0.56 0.59 0.59 0.60 0.59 0.65 0.75 0.81 0.81 0.76 0.77 0.85 0.94 1.01 1.09 1.13 1.13 1.24 1.36 1.49 1.65 1.77 1.83 1.87 1.83 1.83 1.87 1.89 1.87 1.79 1.75 1.76 1.82 1.86 1.85 1.90 1.92 1.87 1.87 1.83